Regional Weather Roundup
Issued by NWS Boston, MA

Home | Current Version | Previous Version | Text Only | Print | Product List | Glossary On
Versions: 1 2 3 4 5 6 7 8 9 10 11 12 13 14 15 16 17 18 19 20 21 22 23 24 25 26 27 28 29 30 31 32 33 34 35 36 37 38 39 40 41 42 43 44 45 46 47 48 49 50
991
ASUS41 KBOX 141710
RWRBOX

REGIONAL WEATHER ROUNDUP
NATIONAL WEATHER SERVICE TAUNTON MA
1200 PM EST SUN FEB 14 2016

NOTE:  "FAIR" INDICATES FEW OR NO CLOUDS BELOW 12,000 FEET WITH NO
SIGNIFICANT WEATHER AND/OR OBSTRUCTIONS TO VISIBILITY.  THE FOLLOWING
OBSERVATION LOCATIONS DO NOT REPORT PRESENT WEATHER...PROVINCETOWN...
SMITHFIELD...BLOCK ISLAND...KEENE...AND OXFORD.

MAZALL-141800-
EASTERN MASSACHUSETTS

CITY           SKY/WX    TMP DP  RH WIND       PRES   REMARKS
BOSTON         SUNNY      5 -15  39 NW21G26   30.38F WCI -16
BEVERLY        SUNNY      4 -18  35 W17G24    30.36S WCI -16
LAWRENCE       SUNNY      3 -17  39 W13G22    30.38F WCI -14
BEDFORD        SUNNY      5 -17  35 NW14G28   30.37F WCI -12
BLUE HILL        N/A      2 -15  45 NW13G21   30.29S WCI -15
NORWOOD        SUNNY      6 -16  35 NW13G21   30.38F WCI -10
MARSHFIELD     NOT AVBL
PLYMOUTH       SUNNY      3 -16  40 NW13      30.36S WCI -14
TAUNTON        SUNNY      5 -17  35 W9        30.39R WCI  -9
NEW BEDFORD    SUNNY      3 -16  40 NW12      30.39R WCI -13
$$

MAZALL-141800-
CAPE COD AND THE ISLANDS

CITY           SKY/WX    TMP DP  RH WIND       PRES   REMARKS
FALMOUTH       SUNNY      5 -13  43 NW15      30.36R WCI -13
HYANNIS        SUNNY      6  -7  54 W12       30.34R WCI  -9
CHATHAM        SNOW       7   2  80 NW7       30.34R VSB 1/2 WCI  -5
PROVINCETOWN   LGT SNOW   7   3  85 NW17G24   30.35S VSB 3/4 WCI -12
NANTUCKET      SUNNY      7  -3  64 NW16      30.36S WCI -11
MARTHAS VNYRD  SUNNY      5  -7  57 W15G24    30.38S WCI -13
$$

MAZALL-141800-
CENTRAL AND WESTERN MASSACHUSETTS

CITY           SKY/WX    TMP DP  RH WIND       PRES   REMARKS
WORCESTER      SUNNY      0 -18  42 NW15G25   30.29R WCI -19
FITCHBURG      SUNNY      4 -17  37 NW14G20   30.37F WCI -14
ORANGE         SUNNY      2 -18  38 N13G18    30.37F WCI -15
SPRINGFIELD    SUNNY      1 -21  34 CALM      30.42F
WESTFIELD      SUNNY      4 -17  37 NW9       30.43F WCI -10
NORTH ADAMS    SUNNY     -3 -20  44 VRB7      30.43F WCI -16
PITTSFIELD     SUNNY     -6 -20  50 W12       30.35R WCI -25
$$

RIZALL-141800-
RHODE ISLAND

CITY           SKY/WX    TMP DP  RH WIND       PRES   REMARKS
PROVIDENCE     MOSUNNY    5 -17  35 NW12      30.42S WCI -11
NEWPORT        SUNNY      4 -12  48 NW13      30.39S WCI -13
BLOCK ISLAND   SUNNY      5  -8  56 NW13G21   30.39F WCI -12
SMITHFIELD     SUNNY      3 -18  36 NW12G18   30.34S WCI -13
WESTERLY       SUNNY      4 -17  37 NW9G18    30.43F WCI -10
$$

CTZALL-141800-
CONNECTICUT

CITY           SKY/WX    TMP DP  RH WIND       PRES   REMARKS
BRADLEY INTL   SUNNY      4 -18  35 CALM      30.45F
HARTFORD       FLURRIES   4 -17  37 W7        30.49F WCI  -8
BRIDGEPORT     SUNNY      6 -16  35 NW14G25   30.50F WCI -11
DANBURY        SUNNY      3 -18  37 NW13      30.47F WCI -14
GROTON         SUNNY      4  -4  69 NW17G26   30.44F WCI -16
NEW HAVEN      MOSUNNY    4 -16  39 NW12G18   30.48F WCI -12
CHESTER        FAIR       3 -20  33 NW12G18   30.43S WCI -13
MERIDEN        SUNNY      6 -19  30 N13G20    30.46F WCI -10
WILLIMANTIC    SUNNY      4 -19  34 N5        30.44S WCI  -5
OXFORD         SUNNY      0 -26  29 N14G21    30.42F WCI -19
$$

MEZ002-015-021-024-NHZ003-005-008-011-012-014-VTZ005-008-141800-
NORTHERN NEW ENGLAND

CITY           SKY/WX    TMP DP  RH WIND       PRES   REMARKS
PORTLAND ME    SUNNY      6 -14  39 NW12G22   30.30F WCI  -9
BANGOR ME      SUNNY      2 -18  38 NW16G28   30.20F WCI -18
CONCORD NH     SUNNY      2 -18  38 W16       30.36F WCI -18
MANCHESTER NH  SUNNY      3 -18  37 NW14G22   30.36S WCI -15
NASHUA NH      SUNNY      7 -17  33 NW10      30.38S WCI  -8
PORTSMOUTH NH  SUNNY      5 -17  36 W12       30.32F WCI -11
JAFFREY NH       N/A      0 -20  38 N9        30.28F WCI -15
KEENE NH       SUNNY      1 -18  39 N6        30.37F WCI -10
BURLINGTON VT  FAIR      -5 -19  51 N9        30.49S WCI -22
MT. WASHINGTON MOSUNNY  -27 -38  56 W63G78      N/A  WCI -73
$$

NYZ052-076-141800-
EASTERN NEW YORK

CITY           SKY/WX    TMP DP  RH WIND       PRES   REMARKS
ALBANY         SUNNY      1 -19  38 VRB7      30.52F WCI -12
NEW YORK CITY  MOSUNNY    8 -14  35 N7        30.53S WCI  -3
$$

ANZALL-141800-
MARINE OBSERVATIONS

STATION/POSITION TIME  TEMP    WIND        PRES    VSBY  WAVE
                       AIR SEA DIR/SP/G                  HT/PER
                 (UTC) (F)     (DEG/KT/KT) (MB)    (MI)  (FT/S)
BOSTON BUOY      1650    5 40  310/ 17/ 23 1028.1F         4/ 4
BUZZARDS BAY     1600          330/ 19/ 22 1029.5R
NANTUCKET SOUND  1650    4 36  290/  8/ 14 1028.4R         2/ 3
MASS BAY-STELLWA 1604    5 40  290/ 12/ 16   N/A    1 7/8  3/ 4
ISLE OF SHOALS   1700    3     300/ 18/ 22 1026.5F
S OF BLOCK IS    NOT AVBL
$$

......................KEY.........................
  SKY/WX - SKY CONDITION/PRESENT WEATHER
  TMP    - TEMPERATURE IN FAHRENHEIT
  DWPT   - DEWPOINT IN FAHRENHEIT
  RH     - RELATIVE HUMIDITY IN PERCENT
  WIND   - DIRECTION AND SPEED IN MPH
  PRES   - MEAN SEA LEVEL PRESSURE IN INCHES OF HG
  WCI    - WIND CHILL INDEX
  VSB    - VISIBILITY IN MILES
  HX     - HEAT INDEX
  TC     - TEMPERATURE IN CELSIUS
  VRB    - VARIABLE WIND DIRECTION
  N/A    - NOT AVAILABLE




USA.gov is the U.S. government's official web portal to all federal, state and local government web resources and services.